TimeEST,TemperatureF,Dew PointF,Humidity,Sea Level PressureIn,VisibilityMPH,Wind Direction,Wind SpeedMPH,Gust SpeedMPH,PrecipitationIn,Events,Conditions,WindDirDegrees,DateUTC
12:53 AM,30.9,23.0,72,30.35,10.0,Calm,Calm,-,N/A,,Overcast,0,2013-02-23 05:53:00
1:53 AM,30.9,23.0,72,30.34,10.0,Calm,Calm,-,N/A,,Overcast,0,2013-02-23 06:53:00
2:53 AM,30.9,23.0,72,30.33,10.0,Calm,Calm,-,N/A,,Overcast,0,2013-02-23 07:53:00
3:53 AM,30.9,23.0,72,30.31,10.0,Calm,Calm,-,N/A,,Overcast,0,2013-02-23 08:53:00
4:53 AM,30.9,23.0,72,30.30,10.0,ESE,3.5,-,N/A,,Overcast,120,2013-02-23 09:53:00
5:38 AM,30.2,23.0,75,30.24,10.0,ESE,3.5,-,N/A,,Overcast,110,2013-02-23 10:38:00
5:53 AM,30.9,23.0,72,30.29,10.0,SE,3.5,-,N/A,,Overcast,140,2013-02-23 10:53:00
6:41 AM,30.2,23.0,75,30.23,10.0,Calm,Calm,-,N/A,,Overcast,0,2013-02-23 11:41:00
6:53 AM,30.9,23.0,72,30.29,10.0,Calm,Calm,-,N/A,,Overcast,0,2013-02-23 11:53:00
7:19 AM,32.0,23.0,69,30.23,10.0,Calm,Calm,-,N/A,,Overcast,0,2013-02-23 12:19:00
7:53 AM,32.0,23.0,69,30.29,10.0,Calm,Calm,-,N/A,,Overcast,0,2013-02-23 12:53:00
8:53 AM,33.1,25.0,72,30.27,10.0,SE,5.8,-,N/A,,Overcast,140,2013-02-23 13:53:00
9:00 AM,33.8,24.8,70,30.21,10.0,SE,6.9,-,N/A,,Overcast,130,2013-02-23 14:00:00
9:35 AM,33.8,26.6,75,30.20,10.0,SE,8.1,-,N/A,,Overcast,130,2013-02-23 14:35:00
9:53 AM,35.1,26.1,70,30.25,10.0,SSE,8.1,-,N/A,,Overcast,150,2013-02-23 14:53:00
10:00 AM,35.6,24.8,65,30.19,10.0,SSE,9.2,-,N/A,,Overcast,150,2013-02-23 15:00:00
10:15 AM,35.6,24.8,65,30.19,10.0,SSE,11.5,-,N/A,,Overcast,150,2013-02-23 15:15:00
10:53 AM,35.1,26.1,70,30.23,10.0,SE,9.2,-,N/A,,Overcast,140,2013-02-23 15:53:00
11:53 AM,36.0,26.1,67,30.20,10.0,South,9.2,-,N/A,,Overcast,170,2013-02-23 16:53:00
12:30 PM,35.6,26.6,70,30.13,10.0,SSE,8.1,-,N/A,,Overcast,150,2013-02-23 17:30:00
12:53 PM,36.0,26.1,67,30.17,10.0,SSE,11.5,-,N/A,,Overcast,150,2013-02-23 17:53:00
1:53 PM,36.0,27.0,70,30.17,10.0,SE,6.9,-,N/A,,Overcast,130,2013-02-23 18:53:00
2:53 PM,36.0,28.9,76,30.15,6.0,SE,9.2,-,0.00,Snow,Light Snow,140,2013-02-23 19:53:00
3:53 PM,35.1,30.0,82,30.13,7.0,East,3.5,-,0.00,Snow,Light Snow,100,2013-02-23 20:53:00
4:53 PM,35.1,30.0,82,30.12,10.0,East,5.8,-,0.00,,Overcast,90,2013-02-23 21:53:00
5:53 PM,36.0,30.0,79,30.11,9.0,SE,3.5,-,0.00,Snow,Light Snow,130,2013-02-23 22:53:00
6:53 PM,34.0,30.0,85,30.09,6.0,ESE,5.8,-,0.00,Rain-Snow,Light Rain,110,2013-02-23 23:53:00
7:33 PM,33.8,30.2,87,30.03,2.5,Calm,Calm,-,0.00,Snow,Light Snow,0,2013-02-24 00:33:00
7:53 PM,34.0,30.9,89,30.08,4.0,ESE,4.6,-,0.00,Snow,Light Snow,120,2013-02-24 00:53:00
8:53 PM,33.1,30.9,92,30.06,3.0,Calm,Calm,-,0.01,Snow,Light Snow,0,2013-02-24 01:53:00
9:53 PM,33.1,30.9,92,30.04,6.0,NNE,3.5,-,0.00,Rain-Snow,Light Snow,30,2013-02-24 02:53:00
10:29 PM,33.8,30.2,87,29.97,2.5,NNE,5.8,-,0.00,Snow,Light Snow,20,2013-02-24 03:29:00
10:51 PM,33.8,30.2,87,29.96,1.5,NNE,3.5,-,0.01,Snow,Light Snow,20,2013-02-24 03:51:00
10:53 PM,33.1,30.9,92,30.01,1.5,Calm,Calm,-,0.01,Snow,Light Snow,0,2013-02-24 03:53:00
11:36 PM,33.8,30.2,87,29.94,3.0,NNE,6.9,-,0.01,Snow,Light Snow,30,2013-02-24 04:36:00
11:53 PM,33.1,30.9,92,29.98,3.0,NNE,8.1,-,0.01,Snow,Light Snow,20,2013-02-24 04:53:00